Tracking 28790 objects as of 18-Apr-2024
HD Live streaming from Space Station
objects crossing your sky now

STARLINK-5179

Track STARLINK-5179 now!
10-day predictions
STARLINK-5179 is classified as:


NORAD ID: 54102
Int'l Code: 2022-136BD
Perigee: 545.8 km
Apogee: 548.0 km
Inclination: 53.2 °
Period: 95.4 minutes
Semi major axis: 6917 km
RCS: Unknown
Launch date: October 20, 2022
Source: United States (US)
Launch site: AIR FORCE EASTERN TEST RANGE (AFETR)
Your satellite tracking list
Your tracking list is empty




NASA's NSSDC Master Catalog

Two Line Element Set (TLE):
1 54102U 22136BD  24108.47424847  .00001061  00000-0  84781-4 0  9991
2 54102  53.2165 197.1246 0001555  97.8896 262.2273 15.08829028 82635
Source of the keplerian elements: AFSPC